FW2218 Weather Reports


Display with metric or nautical units.
time (UTC)temp
F
wind
direction
speed
MPH
gust
MPH
rain 1hr
in
rain 24hr
in
rain mn
in
humidity
%
barometer
mb
20260503013031 80 273 3.0 6.0 0.00 0.00 0.00 43 1005.1
20260503010032 83 271 3.0 7.0 0.00 0.00 0.00 38 1005.1
20260503004530 84 303 2.0 5.0 0.00 0.00 0.00 37 1005.1
20260503003030 83 265 1.0 4.0 0.00 0.00 0.00 35 1005.2
20260503001531 84 293 1.0 6.0 0.00 0.00 0.00 36 1005.3
20260503000037 84 298 2.0 7.0 0.00 0.00 0.00 35 1005.4
20260502234532 84 323 3.0 7.0 0.00 0.00 0.00 36 1005.6
20260502231531 86 357 2.0 7.0 0.00 0.00 0.00 33 1006.0
20260502230106 85 309 2.0 7.0 0.00 0.00 0.00 35 1006.2
20260502224537 84 327 4.0 7.0 0.00 0.00 0.00 34 1006.5
20260502223031 84 318 4.0 8.0 0.00 0.00 0.00 35 1006.8
20260502221530 84 327 4.0 7.0 0.00 0.00 0.00 34 1007.0
20260502214538 84 300 3.0 7.0 0.00 0.00 0.00 35 1007.3
20260502213031 83 299 4.0 8.0 0.00 0.00 0.00 35 1007.6
20260502211604 81 146 1.0 5.0 0.00 0.00 0.00 35 1007.8
20260502210030 81 288 1.0 4.0 0.00 0.00 0.00 38 1007.9
20260502204528 80 20 1.0 5.0 0.00 0.00 0.00 39 1008.1
20260502203051 79 272 2.0 5.0 0.00 0.00 0.00 43 1008.2
20260502201534 77 260 1.0 4.0 0.00 0.00 0.00 46 1008.4
20260502200107 76 298 1.0 7.0 0.00 0.00 0.00 49 1008.7
20260502194532 74 283 2.0 6.0 0.00 0.00 0.00 55 1009.0
20260502193144 72 289 3.0 7.0 0.00 0.00 0.00 57 1009.4
20260502191530 69 294 3.0 6.0 0.00 0.00 0.00 61 1009.6
20260502190027 68 294 4.0 7.0 0.00 0.00 0.00 62 1009.8
20260502184532 69 292 4.0 9.0 0.00 0.00 0.00 61 1009.8
20260502183105 67 314 2.0 5.0 0.00 0.00 0.00 63 1009.8
20260502181530 66 1 1.0 3.0 0.00 0.00 0.00 64 1009.8
20260502161531 56 281 3.0 7.0 0.00 0.00 0.00 79 1010.4
20260502151530 56 117 5.0 12.0 0.00 0.00 0.00 78 1009.8
20260502150144 56 21 3.0 8.0 0.00 0.00 0.00 78 1009.6
20260502123109 58 344 2.0 5.0 0.00 0.00 0.00 73 1008.6
20260502114645 59 119 4.0 13.0 0.00 0.00 0.00 70 1008.3
20260502113145 59 124 5.0 10.0 0.00 0.00 0.00 69 1008.2
20260502111532 59 294 2.0 10.0 0.00 0.00 0.00 69 1008.0
20260502110106 58 24 2.0 10.0 0.00 0.00 0.00 72 1008.4
20260502104533 58 84 1.0 6.0 0.00 0.00 0.00 72 1008.8
20260502103031 58 198 1.0 3.0 0.00 0.00 0.00 72 1008.9
20260502101531 58 266 2.0 7.0 0.00 0.00 0.00 71 1008.7
20260502071530 63 307 3.0 8.0 0.00 0.00 0.00 61 1008.8
20260502070030 63 286 1.0 6.0 0.00 0.00 0.00 60 1008.8
20260502064531 64 276 3.0 9.0 0.00 0.00 0.00 60 1008.8
20260502063030 63 287 5.0 9.0 0.00 0.00 0.00 60 1008.7
20260502054610 64 292 0.0 4.0 0.00 0.00 0.00 59 1008.5
20260502053030 64 271 1.0 4.0 0.00 0.00 0.00 59 1008.3
20260502051537 64 285 2.0 8.0 0.00 0.00 0.00 59 1008.3
20260502050030 65 323 0.0 4.0 0.00 0.00 0.00 58 1008.2
20260502044536 66 266 2.0 5.0 0.00 0.00 0.00 56 1008.1
20260502043026 67 279 2.0 8.0 0.00 0.00 0.00 55 1007.8
20260502041531 68 262 2.0 10.0 0.00 0.00 0.00 53 1007.8
20260502040033 68 331 3.0 7.0 0.00 0.00 0.00 52 1007.8
20260502033032 69 289 2.0 7.0 0.00 0.00 0.00 51 1007.6
20260502031532 70 276 4.0 12.0 0.00 0.00 0.00 50 1007.2
20260502024532 72 265 3.0 8.0 0.00 0.00 0.00 45 1006.7
20260502023027 73 288 3.0 6.0 0.00 0.00 0.00 43 1006.6
20260502021531 75 251 0.0 4.0 0.00 0.00 0.00 41 1006.3
20260502020147 76 250 2.0 5.0 0.00 0.00 0.00 40 1006.3
20260502014533 77 265 2.0 4.0 0.00 0.00 0.00 36 1006.2